User: anonymous   Login
Location: Vancouver
(49.2500°N, 123.1330°W)
Time: 19:41:13
(UTC-08:00)
Language:

BREEZE-M DEB (TANK) - Orbit

View from above orbital plane
View from above orbital plane
View from above satellite
View from above satellite

Ground track
Ground track

The orbit data is extracted from the following two-line orbital elements,

1 27821U 03024B   14356.23696139  .00007982  00000-0  96112-3 0  5463
2 27821 049.5973 001.4274 4999295 064.6809 006.0334 05.64601294228585
Epoch (UTC): 22 December 2014 05:41:13
Eccentricity: 0.4999295
inclination: 49.5973°
perigee height: 284 km
apogee height: 13604 km
right ascension of ascending node: 1.4274°
argument of perigee: 64.6809°
revolutions per day: 5.64601294
mean anomaly at epoch: 6.0334°
orbit number at epoch: 22858

The dashed part of the orbit path shows where the satellite is in the earth's shadow,  

DLR